DW8294 Vamhus SE current weather conditions

sailwx.info

Wind from 320 at 2 knots gusting 6

Air temperature 19.4° C
Dewpoint 14.9° C

Last reported at 2019-Jul-23 11:01 UTC.
Time now 2019-Jul-23 11:44 UTC

Location: N 61°08' E 014°25'.
View on Google Maps.

See reports from other nearby stations

  
Tides and Currents Weather Stations Pressure Air Temp Water Temp Dewpoint Dewpoint Depression Visibility Wind Speed Wind Dir Waves Ship Positions
date/time (UTC)wind fromknots sea level pressurealtimeterstation pressurevisibilityair tempwater tempwave heightnotes
2019-Jul-23 11:01 320 2 gusting 6 19.4
2019-Jul-23 10:46 286 2 gusting 5 19.4
2019-Jul-23 10:31 320 4 gusting 8 18.9
2019-Jul-23 10:16 287 18.9
2019-Jul-23 10:01 320 0 gusting 5 18.9
2019-Jul-23 09:46 227 1 gusting 5 18.9
2019-Jul-23 09:30 320 3 gusting 6 18.9
2019-Jul-23 09:16 301 0 gusting 5 18.9
2019-Jul-23 09:00 310 4 gusting 7 18.9
2019-Jul-23 08:45 277 18.9
2019-Jul-23 08:31 320 2 gusting 5 18.3
2019-Jul-23 08:15 320 1 gusting 6 17.8
2019-Jul-23 08:00 245 0 gusting 6 17.8
2019-Jul-23 07:46 234 17.2
2019-Jul-23 07:30 224 2 gusting 6 17.2
2019-Jul-23 07:15 233 0 gusting 5 17.2
2019-Jul-23 07:00 251 0 gusting 5 16.7
2019-Jul-23 06:45 189 1 gusting 5 16.7
2019-Jul-23 06:30 198 16.1
2019-Jul-23 06:16 110 15.6
2019-Jul-23 06:01 109 15.6
2019-Jul-23 05:45 063 15.0
2019-Jul-23 05:30 062 14.4
2019-Jul-23 05:16 063 13.9
2019-Jul-23 05:00 264 13.3
2019-Jul-23 04:45 264 12.8
2019-Jul-23 04:30 264 12.2
2019-Jul-23 04:15 264 12.2
2019-Jul-23 04:00 262 12.2
2019-Jul-23 03:45 320 11.7
2019-Jul-23 03:30 263 11.7
2019-Jul-23 03:15 262 11.1
2019-Jul-23 03:00 320 11.7
2019-Jul-23 02:45 262 11.7
2019-Jul-23 02:30 320 12.2
2019-Jul-23 02:15 262 12.2
2019-Jul-23 02:00 262 12.2
2019-Jul-23 01:45 262 12.8
2019-Jul-23 01:18 262 12.8
2019-Jul-23 01:02 320 12.8
2019-Jul-23 00:46 264 12.8
2019-Jul-23 00:32 262 12.8
2019-Jul-23 00:16 262 12.8
2019-Jul-23 00:01 262 12.8
2019-Jul-22 23:46 263 13.3
2019-Jul-22 23:31 320 13.3
2019-Jul-22 23:18 262 13.3
2019-Jul-22 23:02 262 13.3
2019-Jul-22 22:47 262 13.9
2019-Jul-22 22:32 320 13.9
2019-Jul-22 22:16 262 14.4
2019-Jul-22 22:01 320 14.4
2019-Jul-22 21:47 262 14.4
2019-Jul-22 21:31 262 15.0
2019-Jul-22 21:16 262 0 gusting 4 15.0
2019-Jul-22 21:01 257 1 gusting 3 15.6
2019-Jul-22 20:46 271 0 gusting 4 16.1
2019-Jul-22 20:31 262 1 gusting 4 16.1
2019-Jul-22 20:16 250 1 gusting 5 16.7
2019-Jul-22 20:01 293 17.2
2019-Jul-22 19:46 320 17.2
2019-Jul-22 19:31 221 17.8
2019-Jul-22 19:16 073 18.3
2019-Jul-22 19:01 074 18.3
2019-Jul-22 18:46 075 18.9
2019-Jul-22 18:31 075 18.9
2019-Jul-22 18:16 075 18.9
2019-Jul-22 18:01 075 19.4
2019-Jul-22 17:45 074 19.4
2019-Jul-22 17:31 074 20.0
2019-Jul-22 17:15 074 20.0
2019-Jul-22 17:01 074 20.0
2019-Jul-22 16:46 074 20.0
2019-Jul-22 16:31 075 20.0
2019-Jul-22 16:17 074 0 gusting 1 20.6
2019-Jul-22 16:01 074 20.6
2019-Jul-22 15:45 075 21.1
2019-Jul-22 15:32 075 21.1
2019-Jul-22 15:16 072 20.6
2019-Jul-22 15:01 096 20.0
2019-Jul-22 14:45 094 20.0
2019-Jul-22 14:31 091 0 gusting 3 20.6
2019-Jul-22 14:16 304 20.6
2019-Jul-22 14:01 131 20.6
2019-Jul-22 13:46 181 21.1
2019-Jul-22 13:30 160 1 gusting 4 21.1
2019-Jul-22 13:16 128 20.6
2019-Jul-22 13:00 124 20.0
2019-Jul-22 12:46 171 20.0
2019-Jul-22 12:30 150 0 gusting 4 20.0
2019-Jul-22 12:15 154 20.0
2019-Jul-22 12:01 105 0 gusting 5 19.4
2019-Jul-22 11:45 135 0 gusting 4 19.4
2019-Jul-22 11:30 111 19.4
2019-Jul-22 11:15 101 0 gusting 4 20.6
2019-Jul-22 11:01 103 0 gusting 4 21.1
2019-Jul-22 10:45 108 1 gusting 6 20.6
2019-Jul-22 10:30 112 0 gusting 3 20.0
2019-Jul-22 10:15 112 18.9
2019-Jul-22 10:00 107 17.8
2019-Jul-22 09:45 115 17.8
2019-Jul-22 09:30 139 18.3
2019-Jul-22 09:15 075 18.3
2019-Jul-22 09:00 074 0 gusting 3 18.3
2019-Jul-22 08:45 320 18.3
2019-Jul-22 08:30 076 17.2
2019-Jul-22 08:15 100 0 gusting 3 16.7
2019-Jul-22 08:02 128 16.7
2019-Jul-22 07:47 131 16.1
2019-Jul-22 07:32 094 16.1
2019-Jul-22 07:16 092 16.1
2019-Jul-22 07:02 089 15.6
2019-Jul-22 06:46 088 15.6
2019-Jul-22 06:31 087 15.6
2019-Jul-22 06:16 113 15.6
2019-Jul-22 06:01 114 15.0
2019-Jul-22 05:46 115 15.0
2019-Jul-22 05:31 115 15.0
2019-Jul-22 05:17 114 14.4
2019-Jul-22 05:01 125 14.4
2019-Jul-22 04:46 113 14.4
2019-Jul-22 04:32 115 14.4
2019-Jul-22 04:16 116 14.4
2019-Jul-22 04:01 111 14.4
2019-Jul-22 03:45 111 14.4
2019-Jul-22 03:31 111 14.4
2019-Jul-22 03:16 113 14.4
2019-Jul-22 03:03 113 14.4
2019-Jul-22 02:46 113 14.4
2019-Jul-22 02:30 092 14.4
2019-Jul-22 02:16 093 14.4
2019-Jul-22 02:01 092 14.4
2019-Jul-22 01:45 093 14.4
2019-Jul-22 01:30 092 14.4
2019-Jul-22 01:15 092 14.4
2019-Jul-22 01:02 094 14.4
2019-Jul-22 00:46 092 14.4
2019-Jul-22 00:31 092 14.4
2019-Jul-22 00:16 092 14.4
2019-Jul-22 00:01 091 14.4
2019-Jul-21 23:46 091 14.4
2019-Jul-21 23:31 091 14.4
2019-Jul-21 23:16 091 14.4
2019-Jul-21 23:01 093 14.4
2019-Jul-21 22:46 094 14.4
2019-Jul-21 22:31 089 14.4
2019-Jul-21 22:16 090 14.4
2019-Jul-21 22:01 088 14.4
2019-Jul-21 21:46 088 0 gusting 2 14.4
2019-Jul-21 21:30 088 15.0
2019-Jul-21 21:15 090 15.0
2019-Jul-21 21:00 091 15.0
2019-Jul-21 20:45 090 15.0
2019-Jul-21 20:30 090 15.0
2019-Jul-21 20:15 091 15.0
2019-Jul-21 20:01 090 15.0
2019-Jul-21 19:45 091 15.0
2019-Jul-21 19:30 089 15.0
2019-Jul-21 19:16 091 15.6
2019-Jul-21 19:00 090 15.6
2019-Jul-21 18:45 091 15.6
2019-Jul-21 18:30 090 15.6
2019-Jul-21 18:15 089 15.6
2019-Jul-21 18:01 090 15.6
2019-Jul-21 17:45 089 15.6
2019-Jul-21 17:30 115 1 gusting 4 15.6
2019-Jul-21 17:15 111 15.6
2019-Jul-21 17:00 107 15.6
2019-Jul-21 16:46 106 0 gusting 3 15.6
2019-Jul-21 16:31 096 0 gusting 2 15.6
2019-Jul-21 16:16 092 15.6
2019-Jul-21 16:01 088 0 gusting 3 15.6
2019-Jul-21 15:46 078 15.6
2019-Jul-21 15:31 137 0 gusting 6 15.6
2019-Jul-21 15:16 141 0 gusting 5 15.6
2019-Jul-21 15:00 140 0 gusting 5 15.6
2019-Jul-21 14:46 115 1 gusting 8 15.6
2019-Jul-21 14:30 118 2 gusting 6 15.6
2019-Jul-21 14:16 131 2 gusting 6 15.6
2019-Jul-21 14:01 089 2 gusting 5 15.6
2019-Jul-21 13:46 116 0 gusting 6 15.6
2019-Jul-21 13:30 169 0 gusting 5 16.1
2019-Jul-21 13:16 133 16.1
2019-Jul-21 13:01 149 15.6
2019-Jul-21 12:46 150 15.6
2019-Jul-21 12:31 150 15.6
2019-Jul-21 12:16 149 0 gusting 6 15.6
2019-Jul-21 12:00 152 3 gusting 6 16.1
2019-Jul-21 11:46 160 16.1
2019-Jul-21 11:31 161 16.7
2019-Jul-21 11:15 154 16.7
2019-Jul-21 11:01 161 3 gusting 6 16.7